Miscellaneous Local Product
Issued by NWS Hastings, NE

Home | Current Version | Previous Version | Text Only | Print | Product List | Glossary Off
Versions: 1 2 3 4 5 6 7 8 9 10 11 12 13 14 15 16 17 18 19 20 21 22 23 24 25 26 27 28 29 30 31 32 33 34 35 36 37 38 39 40 41 42 43 44 45 46 47 48 49 50

000
AXUS43 KGID 030602
MISGRI

GID CWA HOURLY WEATHER ROUNDUP
NATIONAL WEATHER SERVICE HASTINGS NE
100 AM CDT FRI JUL 03 2015

NOTE: "FAIR" INDICATES FEW OR NO CLOUDS BELOW 12,000 FEET WITH NO
SIGNIFICANT WEATHER AND/OR OBSTRUCTIONS TO VISIBILITY.

...SOUTH CENTRAL NEBRASKA...

CITY           SKY/WX    TMP DP  RH WIND       PRES   REMARKS
GRAND ISLAND   CLOUDY    66  64  93 N6        30.01S
HASTINGS       CLEAR     65  63  93 N8        30.00S
KEARNEY        CLEAR     63  59  88 N5        30.02S
ORD            CLOUDY    64  61  90 E5        30.02R
YORK           CLOUDY    66  66 100 E8        29.99S FOG
AURORA         CLOUDY    67  67 100 NE7       30.00S FOG
LEXINGTON      CLEAR     64  62  92 CALM      30.04S
HOLDREGE       CLEAR     64  62  90 NE6       30.02S
HEBRON         CLOUDY    70  67  91 E5        29.95S

...NEBRASKA PANHANDLE...

CITY           SKY/WX    TMP DP  RH WIND       PRES   REMARKS
CHADRON        PTCLDY    63  61  93 SW3       30.10S
ALLIANCE       CLEAR     59  57  93 W5        30.12S
SCOTTSBLUFF      N/A     68  59  73 VRB3      30.14S
SIDNEY         CLEAR     61  58  90 CALM      30.16R

...WESTERN AND NORTH CENTRAL NEBRASKA...

CITY           SKY/WX    TMP DP  RH WIND       PRES   REMARKS
VALENTINE      CLEAR     61  59  93 W5        30.05R
AINSWORTH      CLEAR     63  62  97 CALM      30.05R
ONEILL         CLOUDY    66  64  96 CALM      30.04R FOG
BROKEN BOW     LGT RAIN  61  59  93 CALM      30.04S
IMPERIAL       CLEAR     63  58  83 NE3       30.09S
NORTH PLATTE   CLEAR     62  58  86 SE3       30.06S
MCCOOK         CLEAR     68  59  73 CALM      30.04S

...EASTERN NEBRASKA...

CITY           SKY/WX    TMP DP  RH WIND       PRES   REMARKS
NORFOLK        CLOUDY    65  62  90 CALM      30.01S
SO SIOUX CITY  PTCLDY    62  58  86 E5        30.01R
TEKAMAH        PTCLDY    60  57  89 N3        30.00R
COLUMBUS       CLOUDY    64  59  82 NE5       30.00S
ALBION         CLOUDY    64  60  86 E3        30.02R FOG
OMAHA EPPLEY   CLOUDY    64  56  75 E5        29.99S
OFFUTT AFB     MOCLDY    64  58  80 E3        29.98R
MILLARD        PTCLDY    65  59  81 CALM      29.99R
LINCOLN        CLOUDY    69  65  86 E7        29.98R
NEBRASKA CITY  CLOUDY    66  64  92 E5        29.98R
BEATRICE       CLOUDY    68  66  93 E6        29.96R
FALLS CITY     CLOUDY    66  60  81 E10       29.95S

...NORTHERN KANSAS...

CITY           SKY/WX    TMP DP  RH WIND       PRES   REMARKS
GOODLAND       PTCLDY    65  56  72 E5        30.10S
HILL CITY      CLEAR     67  60  78 N6        30.02R
NORTON         CLEAR     63  55  77 N3        30.02S
PHILLIPSBURG   CLEAR     72  64  78 CALM      30.00S
SMITH CENTER   CLEAR     66  63  88 N6        29.99S
HAYS           CLEAR     70  57  64 N7        29.99S
RUSSELL        CLEAR     68  63  84 NE7       29.96S
CONCORDIA      CLEAR     64  63  96 W6        29.94F
SALINA         CLEAR     70  64  81 W6        29.93F
TOPEKA         LGT RAIN  70  67  90 E9        29.93S FOG



USA.gov is the U.S. government's official web portal to all federal, state and local government web resources and services.